[[{"header":{"parameterUnit":"m.s-1","parameterCategory":2,"la1":30.2992,"la2":30.254,"lo1":-89.0895,"lo2":-89.0443,"dy":0.0025,"dx":0.0025,"nx":19,"ny":19,"refTime":"2026-05-03T21:00:00:Z","depth":"0","parameterNumber":2,"parameterNumberName":"U-component_of_CURRENTS"},"data":[0,0,0,0.1187,0.1186,0.1133,0.1133,0.1185,0.1186,0,0,0,0,0,0,0,0,0,0,0,0.1213,0.1213,0.1187,0.1186,0.1133,0.1133,0.1185,0.1186,0,0,0,0,0,0,0,0,0,0,0,0.1213,0.1213,0.1212,0.1185,0.1133,0.1133,0.1184,0.1196,0,0,0,0,0,0,0,0,0,0,0.1232,0.1255,0.1213,0.1212,0.1185,0.1133,0.1133,0.1195,0.1195,0.1241,0,0.1231,0,0.1207,0.1191,0.1192,0,0,0,0.1191,0.1255,0.1221,0.1212,0.1185,0.1133,0.1158,0.1194,0.1194,0.1242,0.1231,0.1232,0.1208,0.1192,0.1192,0.1305,0.1306,0,0,0.1193,0.1226,0.1221,0.1221,0.1171,0.116,0.1157,0.1193,0.1209,0.1231,0.1232,0.1209,0.1192,0.1193,0.1304,0.1305,0,0,0,0.1199,0.1229,0.1191,0.122,0.12,0.1158,0.1154,0.1207,0.1189,0.1233,0.1209,0.1193,0.1194,0.1304,0.1305,0.1334,0,0,0,0.1201,0.123,0.1193,0.1215,0.1198,0.1191,0.1169,0.1186,0.1189,0.1209,0.1193,0.1195,0.1303,0.1304,0.1332,0.1358,0,0,0,0.1215,0.1232,0.1221,0.1216,0.1187,0.1189,0.1173,0.1186,0.1176,0.1192,0.1195,0.1303,0.1304,0.133,0.1355,0.1437,0,0,0,0.1257,0.1245,0.1222,0.1212,0.1187,0.117,0.1172,0.1172,0.1185,0.1193,0.1303,0.1305,0.1329,0.1353,0.1434,0.1469,0.1486,0,0,0.1258,0.1246,0.1237,0.1214,0.1195,0.1177,0.1204,0.1218,0.1228,0.1299,0.13,0.1333,0.1355,0.1436,0.155,0.1566,0,0,0,0.1248,0.1238,0.1231,0.1216,0.12,0.1223,0.1222,0.1249,0.1303,0.124,0.1353,0.1367,0.1418,0.1432,0.1445,0.1285,0.1311,0.1311,0.1311,0.1301,0.1268,0.1259,0.1229,0.1238,0.1261,0.13,0.1346,0.1338,0.1376,0.1406,0.1509,0.1524,0.1534,0.1368,0.1415,0.1416,0.1416,0.1416,0.1295,0.1283,0.1275,0.1247,0.1278,0.131,0.1391,0.1408,0.1511,0.1468,0.1516,0.148,0.1549,0.1367,0.1418,0.1418,0.1417,0.1417,0.1417,0.1321,0.1309,0.1285,0.1267,0.1309,0.1347,0.1452,0.1506,0.1552,0.1599,0.1644,0.1643,0.1474,0.1628,0.1629,0.1629,0.163,0.163,0.163,0.1356,0.1329,0.1304,0.1293,0.1307,0.1377,0.1498,0.1582,0.1683,0.1703,0.1703,0.1496,0.1575,0.1556,0.1638,0.1636,0.1635,0.1635,0.1634,0.1363,0.1351,0.1316,0.1311,0.1343,0.1414,0.1538,0.171,0.1807,0.1862,0.1638,0.1773,0.1779,0.1768,0.1755,0.1885,0.1885,0.1885,0.1885,0.1382,0.1367,0.132,0.1313,0.1359,0.1432,0.1574,0.1725,0.1754,0.1717,0.1648,0.1557,0.1554,0.154,0.1535,0.1514,0.1579,0.1578,0.1577,0.1384,0.1367,0.1338,0.1308,0.1348,0.1445,0.1537,0.1605,0.1619,0.1544,0.1418,0.1432,0.1271,0.128,0.1234,0.1239,0.1197,0,0]},{"header":{"parameterUnit":"m.s-1","parameterCategory":2,"la1":30.2992,"la2":30.254,"lo1":-89.0895,"lo2":-89.0443,"dy":0.0025,"dx":0.0025,"nx":19,"ny":19,"refTime":"2026-05-03T21:00:00:Z","depth":"0","parameterNumber":3,"parameterNumberName":"V-component_of_CURRENTS"},"data":[0,0,0,-0.0004,-0.0003,0.005,0.005,0.008,0.0081,0,0,0,0,0,0,0,0,0,0,0,-0.0024,-0.0023,-0.0004,-0.0002,0.005,0.005,0.008,0.0081,0,0,0,0,0,0,0,0,0,0,0,-0.0024,-0.0023,-0.0023,-0.0002,0.005,0.005,0.008,0.0048,0,0,0,0,0,0,0,0,0,0,0.0001,-0.0027,-0.0024,-0.0023,-0.0002,0.005,0.005,0.0047,0.005,0.0048,0,0.0062,0,0.0075,0.0082,0.0082,0,0,0,-0.0008,-0.0029,0.0004,-0.0023,-0.0001,0.005,0.0025,0.0049,0.0053,0.0052,0.0062,0.0064,0.0075,0.0083,0.0083,0.0097,0.0097,0,0,-0.0011,-0.0034,0.0002,0.0006,0.0019,0.0023,0.0026,0.0052,0.0046,0.0062,0.0065,0.0076,0.0083,0.0083,0.0097,0.0097,0,0,0,-0.0016,-0.0036,-0.0004,0.0005,0.0019,0.0025,0.0029,0.0045,0.0061,0.0065,0.0076,0.0083,0.0083,0.0097,0.0097,0.0118,0,0,0,-0.0018,-0.0038,-0.0005,-0.0021,0.0019,0.0033,0.0021,0.006,0.0063,0.0076,0.0083,0.0083,0.0097,0.0097,0.0117,0.0131,0,0,0,-0.0027,-0.004,-0.0027,-0.0022,0.0006,0.0034,0.0051,0.0061,0.007,0.0083,0.0084,0.0097,0.0097,0.0117,0.013,0.0138,0,0,0,-0.0062,-0.0037,-0.0028,0.0,0.0006,0.0052,0.0051,0.0074,0.0086,0.0083,0.0097,0.0097,0.0117,0.0129,0.0138,0.0211,0.022,0,0,-0.0044,-0.0036,-0.0016,-0.0006,0.0045,0.0044,0.0076,0.0089,0.0081,0.0085,0.0086,0.0117,0.013,0.0138,0.0206,0.0215,0,0,0,-0.0019,-0.0002,0.0013,0.0042,0.0072,0.0091,0.0102,0.0099,0.0102,0.009,0.011,0.0117,0.0122,0.0164,0.0171,0.021,0.0097,0.0097,0.0097,-0.0039,-0.0002,0.0036,0.0082,0.0102,0.0122,0.0129,0.0124,0.0118,0.0114,0.0128,0.0141,0.0186,0.0193,0.0231,0.0119,0.0119,0.0119,0.0119,-0.0001,0.0032,0.0061,0.0117,0.0135,0.0158,0.016,0.0153,0.0152,0.0138,0.0141,0.0177,0.0202,0.024,0.012,0.012,0.012,0.012,0.012,-0.0001,0.0025,0.0061,0.0132,0.0166,0.0185,0.0213,0.0197,0.0173,0.0177,0.0219,0.0219,0.0258,0.0178,0.0178,0.0178,0.0178,0.0178,0.0178,-0.0011,0.0031,0.0089,0.0153,0.0191,0.023,0.0244,0.0249,0.0256,0.025,0.025,0.0274,0.0159,0.0163,0.018,0.0179,0.0179,0.0179,0.0179,0.0018,0.0035,0.0119,0.0168,0.0261,0.0325,0.0326,0.0358,0.0345,0.0358,0.0385,0.0287,0.0288,0.0283,0.0289,0.0338,0.0338,0.0338,0.0338,0.0027,0.0045,0.0158,0.0238,0.0317,0.0371,0.0472,0.052,0.0511,0.0527,0.047,0.048,0.0472,0.0483,0.0473,0.0483,0.0579,0.0579,0.058,0.0054,0.0085,0.0163,0.0252,0.0347,0.0433,0.0566,0.071,0.0689,0.0589,0.0508,0.0498,0.0509,0.0493,0.0506,0.0489,0.0502,0,0]}],[{"header":{"parameterUnit":"m.s-1","parameterCategory":2,"la1":30.2992,"la2":30.254,"lo1":-89.0895,"lo2":-89.0443,"dy":0.0025,"dx":0.0025,"nx":19,"ny":19,"refTime":"2026-05-03T21:00:00:Z","depth":"2","parameterNumber":2,"parameterNumberName":"U-component_of_CURRENTS"},"data":[0,0,0,0.1098,0.1098,0.1083,0.1083,0.1126,0.1127,0,0,0,0,0,0,0,0,0,0,0,0.1107,0.1107,0.1099,0.1098,0.1083,0.1083,0.1126,0.1127,0,0,0,0,0,0,0,0,0,0,0,0.1107,0.1107,0.1107,0.1098,0.1083,0.1083,0.1126,0.1122,0,0,0,0,0,0,0,0,0,0,0.1128,0.1134,0.1107,0.1107,0.1098,0.1083,0.1083,0.1121,0.1122,0.1151,0,0.1151,0,0.1141,0.1131,0.1131,0,0,0,0.1097,0.1133,0.1123,0.1107,0.1098,0.1083,0.109,0.1121,0.1122,0.1153,0.1151,0.1152,0.1141,0.1132,0.1132,0.1223,0.1224,0,0,0.1098,0.1112,0.1122,0.1124,0.1098,0.109,0.1089,0.1121,0.113,0.1151,0.1153,0.1142,0.1132,0.1133,0.1223,0.1224,0,0,0,0.1101,0.1113,0.11,0.1123,0.1115,0.109,0.1089,0.1129,0.1123,0.1153,0.1143,0.1132,0.1133,0.1222,0.1223,0.1244,0,0,0,0.1101,0.1114,0.1101,0.111,0.1114,0.1115,0.1096,0.112,0.1123,0.1142,0.1133,0.1134,0.1222,0.1223,0.1242,0.126,0,0,0,0.1107,0.1115,0.1112,0.1111,0.1103,0.1114,0.1109,0.112,0.1118,0.1132,0.1134,0.1221,0.1223,0.124,0.1257,0.129,0,0,0,0.1122,0.1122,0.1113,0.1116,0.1103,0.1106,0.1109,0.1117,0.1129,0.1133,0.1222,0.1223,0.124,0.1255,0.1288,0.1204,0.1207,0,0,0.1127,0.1123,0.1123,0.1115,0.1115,0.1107,0.1135,0.1149,0.1161,0.1214,0.1216,0.1242,0.1257,0.129,0.1275,0.1274,0,0,0,0.1128,0.1126,0.1127,0.1126,0.1127,0.1146,0.1153,0.1175,0.1221,0.1174,0.1261,0.1271,0.129,0.1236,0.1237,0.1229,0.1229,0.1229,0.1229,0.1144,0.1138,0.1142,0.114,0.1153,0.1178,0.1207,0.1245,0.1247,0.1279,0.1301,0.136,0.1303,0.1302,0.1312,0.1312,0.1312,0.1312,0.1312,0.1143,0.114,0.1152,0.1152,0.118,0.1209,0.1273,0.1289,0.1363,0.1348,0.1365,0.1277,0.1303,0.1314,0.1314,0.1313,0.1313,0.1313,0.1313,0.1143,0.1141,0.1144,0.1157,0.1195,0.1234,0.1301,0.1355,0.1388,0.1417,0.1363,0.1361,0.1369,0.1427,0.1427,0.1427,0.1427,0.1427,0.1428,0.1139,0.1142,0.1145,0.1165,0.1184,0.1236,0.1332,0.1375,0.1401,0.1393,0.1392,0.1399,0.1395,0.1377,0.1431,0.143,0.143,0.143,0.1429,0.1125,0.1134,0.1136,0.1149,0.1187,0.1203,0.1292,0.1333,0.1397,0.1381,0.1378,0.1378,0.1366,0.1364,0.1346,0.139,0.139,0.139,0.139,0.1121,0.1123,0.1123,0.1133,0.116,0.1186,0.1154,0.1127,0.1193,0.1185,0.1193,0.1127,0.1133,0.1105,0.1109,0.1085,0.106,0.1059,0.1059,0.1112,0.1114,0.1107,0.1112,0.1136,0.1137,0.1022,0.0843,0.0877,0.1044,0.1114,0.1372,0.1295,0.1297,0.1271,0.1271,0.1238,0,0]},{"header":{"parameterUnit":"m.s-1","parameterCategory":2,"la1":30.2992,"la2":30.254,"lo1":-89.0895,"lo2":-89.0443,"dy":0.0025,"dx":0.0025,"nx":19,"ny":19,"refTime":"2026-05-03T21:00:00:Z","depth":"2","parameterNumber":3,"parameterNumberName":"V-component_of_CURRENTS"},"data":[0,0,0,0.0087,0.0088,0.0123,0.0123,0.017,0.017,0,0,0,0,0,0,0,0,0,0,0,0.0074,0.0074,0.0087,0.0088,0.0123,0.0123,0.017,0.017,0,0,0,0,0,0,0,0,0,0,0,0.0074,0.0074,0.0075,0.0088,0.0123,0.0123,0.017,0.0143,0,0,0,0,0,0,0,0,0,0,0.0109,0.0089,0.0074,0.0075,0.0089,0.0123,0.0123,0.0142,0.0145,0.0155,0,0.016,0,0.0167,0.0174,0.0174,0,0,0,0.0088,0.0086,0.0104,0.0075,0.0089,0.0123,0.0107,0.0143,0.0147,0.0159,0.0161,0.0163,0.0168,0.0174,0.0174,0.0218,0.0219,0,0,0.0086,0.0073,0.0101,0.0106,0.0098,0.0106,0.0108,0.0145,0.0144,0.0161,0.0164,0.0169,0.0174,0.0175,0.0218,0.0219,0,0,0,0.0081,0.0072,0.0088,0.0104,0.011,0.0107,0.011,0.0143,0.015,0.0165,0.017,0.0174,0.0175,0.0218,0.0218,0.0247,0,0,0,0.008,0.0069,0.0087,0.0079,0.011,0.0125,0.0106,0.0148,0.0152,0.0169,0.0174,0.0176,0.0218,0.0218,0.0246,0.0267,0,0,0,0.0072,0.0068,0.0074,0.0078,0.0095,0.0124,0.0134,0.0149,0.0155,0.0174,0.0176,0.0218,0.0218,0.0245,0.0265,0.0304,0,0,0,0.0056,0.0073,0.0074,0.0094,0.0094,0.0133,0.0134,0.0158,0.0174,0.0175,0.0218,0.0218,0.0245,0.0263,0.0302,0.0383,0.0397,0,0,0.0072,0.0074,0.0088,0.009,0.0131,0.0128,0.0167,0.0185,0.0182,0.0206,0.0207,0.0247,0.0264,0.0304,0.0401,0.0414,0,0,0,0.0091,0.0102,0.0114,0.0135,0.0157,0.0184,0.0196,0.0203,0.0223,0.0193,0.0245,0.0255,0.0279,0.0324,0.0335,0.022,0.022,0.022,0.022,0.0097,0.0117,0.0148,0.0177,0.0198,0.0224,0.0246,0.0257,0.0247,0.0256,0.0277,0.0324,0.0372,0.0381,0.027,0.0271,0.0271,0.0271,0.0271,0.0133,0.016,0.0178,0.0217,0.0242,0.0272,0.0302,0.0301,0.0335,0.0305,0.0327,0.035,0.0395,0.0273,0.0273,0.0272,0.0272,0.0272,0.0272,0.0147,0.0166,0.0185,0.0238,0.0281,0.0308,0.0374,0.0373,0.0368,0.0388,0.0444,0.0444,0.0355,0.04,0.04,0.04,0.04,0.0401,0.0401,0.0158,0.0181,0.022,0.0268,0.0307,0.0367,0.0417,0.0456,0.0493,0.0491,0.0492,0.0368,0.0364,0.0363,0.0405,0.0404,0.0403,0.0403,0.0403,0.0195,0.0197,0.0258,0.0298,0.0396,0.0495,0.053,0.0628,0.0644,0.0679,0.0557,0.0552,0.0556,0.0548,0.0551,0.064,0.064,0.064,0.064,0.0214,0.0221,0.0301,0.0374,0.0474,0.056,0.072,0.077,0.0749,0.0712,0.0708,0.0687,0.0677,0.0685,0.0673,0.0678,0.0799,0.0799,0.0799,0.0244,0.0263,0.0324,0.0394,0.051,0.0652,0.081,0.0841,0.0777,0.08,0.068,0.0661,0.062,0.0608,0.0608,0.0594,0.0596,0,0]}],[{"header":{"parameterUnit":"m.s-1","parameterCategory":2,"la1":30.2992,"la2":30.254,"lo1":-89.0895,"lo2":-89.0443,"dy":0.0025,"dx":0.0025,"nx":19,"ny":19,"refTime":"2026-05-03T21:00:00:Z","depth":"4","parameterNumber":2,"parameterNumberName":"U-component_of_CURRENTS"},"data":[0,0,0,0.0726,0.0728,0.083,0.0831,0.0854,0.0854,0,0,0,0,0,0,0,0,0,0,0,0.069,0.0691,0.0725,0.0728,0.083,0.0831,0.0854,0.0854,0,0,0,0,0,0,0,0,0,0,0,0.069,0.0691,0.0692,0.0729,0.083,0.0831,0.0854,0.08,0,0,0,0,0,0,0,0,0,0,0.0713,0.0689,0.0691,0.0692,0.073,0.083,0.0831,0.0799,0.0803,0.0781,0,0.0812,0,0.0838,0.0854,0.0854,0,0,0,0.0716,0.0685,0.0727,0.0693,0.0731,0.083,0.0781,0.0802,0.0807,0.0786,0.0813,0.0815,0.0838,0.0854,0.0854,0.0864,0.0864,0,0,0.071,0.0689,0.0724,0.0731,0.0776,0.0778,0.0784,0.0806,0.0808,0.0813,0.0816,0.0838,0.0854,0.0854,0.0864,0.0864,0,0,0,0.0702,0.0685,0.0728,0.0729,0.0759,0.0781,0.0788,0.0807,0.0827,0.0816,0.0839,0.0854,0.0854,0.0864,0.0864,0.0878,0,0,0,0.0698,0.0682,0.0726,0.0711,0.076,0.0797,0.0788,0.0825,0.0829,0.0838,0.0854,0.0854,0.0863,0.0864,0.0878,0.0877,0,0,0,0.0682,0.0679,0.0701,0.071,0.0762,0.0798,0.0818,0.0827,0.0842,0.0854,0.0854,0.0863,0.0864,0.0877,0.0876,0.0873,0,0,0,0.0642,0.0674,0.0701,0.074,0.0762,0.0815,0.0818,0.0853,0.0865,0.0854,0.0863,0.0864,0.0877,0.0876,0.0873,0.0745,0,0,0,0.0656,0.0674,0.0698,0.0725,0.0775,0.0799,0.0828,0.0851,0.0856,0.0846,0.0847,0.0878,0.0876,0.0873,0.0757,0,0,0,0,0.0686,0.0705,0.0724,0.0764,0.0804,0.0825,0.0855,0.0862,0.0877,0.0869,0.0878,0.0876,0.0873,0.0798,0.0865,0.0865,0.0864,0.0864,0.0864,0.0649,0.0692,0.0726,0.0778,0.0806,0.0843,0.0858,0.0869,0.0879,0.089,0.0888,0.0894,0.0816,0.0891,0.0892,0.0892,0.0892,0.0892,0.0892,0.0659,0.0677,0.0725,0.0778,0.0805,0.0832,0.0857,0.0873,0.0891,0.0897,0.0894,0.0819,0.0893,0.0893,0.0893,0.0893,0.0892,0.0892,0.0892,0.062,0.0636,0.0687,0.0754,0.0787,0.0827,0.0834,0.0871,0.0895,0.0904,0.082,0.0899,0.0897,0.0908,0.0908,0.0908,0.0908,0.0908,0.0908,0.0555,0.0607,0.0653,0.0727,0.0754,0.0786,0.083,0.0831,0.0866,0.0815,0.0911,0.09,0.0899,0.0897,0.0908,0.0908,0.0908,0.0908,0.0908,0.0519,0.055,0.0608,0.0646,0.0698,0.0702,0.0768,0.0743,0.0739,0.0708,0.0761,0.0768,0.0747,0.075,0.0742,0.0708,0.0706,0.0704,0,0.0477,0.0503,0.0566,0.0594,0.0594,0.0637,0.0591,0.0607,0.0636,0.0615,0.0738,0.0798,0.0802,0.078,0.078,0.0771,0,0,0,0.046,0.0485,0.0505,0.0548,0.0534,0.0518,0.0567,0.054,0.0646,0.0591,0.0664,0.0674,0.0807,0.0908,0.0893,0.0892,0.0888,0,0]},{"header":{"parameterUnit":"m.s-1","parameterCategory":2,"la1":30.2992,"la2":30.254,"lo1":-89.0895,"lo2":-89.0443,"dy":0.0025,"dx":0.0025,"nx":19,"ny":19,"refTime":"2026-05-03T21:00:00:Z","depth":"4","parameterNumber":3,"parameterNumberName":"V-component_of_CURRENTS"},"data":[0,0,0,0.0139,0.014,0.0159,0.0159,0.0231,0.0232,0,0,0,0,0,0,0,0,0,0,0,0.0133,0.0133,0.0139,0.014,0.0159,0.0159,0.0231,0.0232,0,0,0,0,0,0,0,0,0,0,0,0.0133,0.0133,0.0133,0.014,0.0159,0.0159,0.0231,0.0206,0,0,0,0,0,0,0,0,0,0,0.0182,0.0169,0.0133,0.0133,0.014,0.0159,0.0159,0.0204,0.0207,0.0234,0,0.0232,0,0.0232,0.0237,0.0237,0,0,0,0.0146,0.0166,0.0168,0.0133,0.014,0.0159,0.0152,0.0206,0.0209,0.0238,0.0233,0.0235,0.0233,0.0238,0.0238,0.0332,0.0333,0,0,0.0145,0.0142,0.0166,0.017,0.014,0.0151,0.0153,0.0207,0.0212,0.0233,0.0236,0.0234,0.0238,0.0239,0.0332,0.0332,0,0,0,0.0137,0.0142,0.0142,0.0168,0.0167,0.0152,0.0153,0.021,0.0209,0.0237,0.0235,0.0239,0.024,0.0331,0.0332,0.035,0,0,0,0.0137,0.0137,0.0142,0.0141,0.0165,0.0182,0.0154,0.0205,0.0211,0.0235,0.0239,0.024,0.0331,0.0332,0.0349,0.0369,0,0,0,0.0133,0.0137,0.0136,0.0141,0.0146,0.0181,0.0184,0.0206,0.021,0.0237,0.0241,0.0331,0.0332,0.0347,0.0366,0.0403,0,0,0,0.0134,0.0142,0.0136,0.0148,0.0146,0.0176,0.0183,0.021,0.0233,0.0239,0.0331,0.0332,0.0347,0.0365,0.0401,0.0369,0,0,0,0.0147,0.0144,0.0151,0.0146,0.0175,0.0174,0.022,0.0249,0.026,0.0316,0.0318,0.0349,0.0366,0.0402,0.0431,0,0,0,0,0.0158,0.0163,0.0171,0.0184,0.02,0.0234,0.0253,0.0274,0.0321,0.0278,0.0365,0.0376,0.0398,0.0375,0.0337,0.0337,0.0337,0.0337,0.0337,0.0178,0.0185,0.0208,0.0223,0.0246,0.0282,0.0316,0.0351,0.035,0.0376,0.0402,0.046,0.0436,0.0409,0.0409,0.0409,0.0409,0.0409,0.0409,0.0204,0.0219,0.0238,0.0262,0.0296,0.0336,0.0392,0.04,0.0465,0.0444,0.0463,0.0409,0.0412,0.0411,0.0411,0.0411,0.041,0.041,0.041,0.0217,0.0228,0.0241,0.0284,0.0338,0.0377,0.0454,0.048,0.0494,0.0519,0.0502,0.0487,0.0473,0.0527,0.0527,0.0527,0.0528,0.0528,0.0528,0.0227,0.0242,0.027,0.0313,0.0354,0.0421,0.0497,0.0537,0.055,0.0539,0.0531,0.05,0.0496,0.0481,0.0532,0.0531,0.0531,0.053,0.053,0.0244,0.0248,0.0291,0.0329,0.0425,0.0475,0.0539,0.0581,0.0621,0.0615,0.0553,0.055,0.0547,0.0542,0.0528,0.0595,0.0595,0.0595,0,0.0255,0.026,0.0319,0.0385,0.0468,0.0518,0.0575,0.0609,0.0602,0.0583,0.0621,0.055,0.0547,0.0542,0.0537,0.052,0,0,0,0.027,0.0285,0.0331,0.0394,0.0489,0.0552,0.0593,0.0595,0.0589,0.0609,0.059,0.0591,0.057,0.0544,0.0534,0.0529,0.0505,0,0]}]]